SCP
0 0 0 0 0 0 0 0 0 0 0 0 0 0 0 0 0 0 0 0 0 0 0 0 0 0 0 0 0 0 0 0 0 0 0 0 0 0 0 0 0 0 0 0
0 0 0 0 0 0 0 0 0 0 0 0 0 0 0 0 0 0 0 0 0 0 0 0 0 0 0 0 0 0 0 0 0 0 0 0 0 0 0 0 0 0 0 0
0 0 0 0 0 0 0 0 0 0 0 0 0 0 0 0 0 0 0 0 0 0 0 0 0 0 0 0 0 0 0 0 0 0 0 0 0 0 0 0 0 0 0 0
0 0 0 0 0 0 0 0 0 0 0 0 0 0 0 0 0 0 0 0 0 0 0 0 0 0 0 0 0 0 0 0 0 0 0 0 0 0 0 0 0 0 0 0
0 0 0 0 0 0 0 0 0 0 0 0 0 0 0 0 0 0 0 0 0 0 0 0 0 0 0 0 0 0 0 0 0 0 0 0 0 0 0 0 0 0 0 0
0 0 0 0 0 0 0 0 0 0 0 0 0 0 0 0 0 0 0 0 0 0 0 0 0 0 0 0 0 0 0 0 0 0 0 0 0 0 0 0 0 0 0 0
0 0 0 0 0 0 0 0 0 0 0 0 0 0 0 0 0 0 0 0 0 0 0 0 0 0 0 0 0 0 0 0 0 0 0 0 0 0 0 0 0 0 0 0
0 0 0 0 0 0 0 0 0 0 0 0 0 0 0 0 0 0 0 0 0 0 0 0 0 0 0 0 0 0 0 0 0 0 0 0 0 0 0 0 0 0 0 0
0 0 0 0 0 0 0 0 0 0 0 0 0 0 0 0 0 0 0 0 0 0 0 0 0 0 0 0 0 0 0 0 0 0 0 0 0 0 0 0 0 0 0 0
0 0 0 0 0 0 0 0 0 0 0 0 0 0 0 0 0 0 0 0 0 0 0 0 0 0 0 0 0 0 0 0 0 0 0 0 0 0 0 0 0 0 0 0
0 0 0 0 0 0 0 0 0 0 0 0 0 0 0 0 0 0 0 0 0 0 0 0 0 0 0 0 0 0 0 0 0 0 0 0 0 0 0 0 0 0 -0 0
0 0 0 0 0 0 0 0 0 0 0 0 0 0 0 0 0 0 0 0 0 0 0 0 0 0 0 0 0 0 0 0 0 0 0 0 0 0 0 0 0 0 0 0
0 0 0 0 0 0 0 0 0 0 0 0 0 0 0 0 0 0 0 0 0 0 0 0 0 0 0 0 0 0 0 0 0 0 0 0 0 0 0 0 0 0 0 0
0 -0 0 0 0 0 0 0 0 0 0 0 0 0 0 0 0 0 0 0 0 0 0 0 0 0 0 0 0 0 0 0 0 0 0 0 0 0 0 0 0 0 0 0
0 0 0 0 0 0 0 0 0 0 0 0 0 0 0 0 0 0 0 0 0 0 0 0 0 0 0 0 0 0 0 0 0 0 0 0 0 0 0 0 0 0 0 0
0 0 0 0 0 0 0 0 0 0 0 0 0 0 0 0 0 0 0 0 0 0 0 0 0 0 0 0 0 -0 0 0 0 0 0 0 0 0 0 0 0 0 0 0
0 0 0 -0 0 0 0 0 0 0 0 0 0 0 0 0 0 0 0 0 0 0 0 0 0 0 0 0 0 -0 0 0 0 0 0 0 0 0 0 0 0 0 0 0
0 0 0 -0 0 0 0 0 0 0 0 0 0 0 0 0 0 0 0 0 0 0 0 0 0 0 0 0 -0 -0 0 0 0 0 0 -0 0 0 0 0 0 0 0 0
0 0 0 -0 0 0 0 0 0 0 0 0 0 0 0 0 0 0 0 0 0 0 0 0 0 0 0 0 0 0 0 0 0 0 0 0 0 0 0 0 0 0 0 -0
-0 -0 0 0 0 0 0 0 0 0 0 0 0 0 0 0 0 0 0 0 0 0 0 0 0 0 0 0 0 0 0 0 0 0 -0 0 0 0 0 0 0 -0 0 0
0 0 0 0 0 0 0 0 0 0 0 0 0 0 0 0 0 0 0 0 0 0 0 0 0 0 -0 -0 -0 0 0 0 0 -0 -0 0 0 0 0 -0 -0 0 0 0
-0 -0 0 0 0 0 0 0 0 0 0 0 0 0 0 0 0 0 0 0 0 0 0 0 -0 -0 -0 0 0 0 0 0 0 0 0 -0 0 0 0 -0 0 -0 -0 0
0 0 0 0 0 0 0 0 0 0 0 0 0 0 0 0 0 0 0 0 0 0 0 -0 -0 -0 0 0 0 0 0 0 0 0 0 0 -0 0 0 -0 -0 -0 0 0
0 0 0 0 0 0 0 0 0 0 0 0 0 0 0 0 0 0 0 0 0 0 0 0 -0 0 0 0 0 0 0 0 0 -0 -0 -0 -0 0 0 -0 -0 -0 -0 0
0 0 0 0 0 0 0 0 0 0 0 0 0 0 0 0 0 0 0 0 0 -0 -0 0 0 0 0 0 -0 -0 -0 0 -0 -0 -0 -0 0 0 0 0 -0 -0 -0 -0
0 0 0 0 0 0 0 0 0 0 0 0 0 0 0 0 0 0 0 0 0 0 0 0 0 0 0 0 0 0 0 0 -0 -0 -0 -0 -0 0 0 0 -0 -0 0 0
0 0 0 0 0 0 0 0 0 0 0 0 0 0 0 0 0 0 0 0 0 0 0 0 -0 -0 -0 -0 -0 -0 -0 -0 0 -0 -0 -0 -0 0 0 -0 0 0 0 0
Wind_Speed_500mb
22 20 18 14 13 16 19 13 4 7 12 5 3 4 5 3 5 4 5 2 6 10 9 5 7 9 9 12 15 9 8 7 7 19 7 9 10 14 10 8 11 8 5 19
24 22 21 16 13 23 18 7 8 15 24 5 5 2 4 6 8 6 6 5 7 2 9 3 11 7 5 15 14 12 9 2 6 15 10 9 5 9 8 6 3 13 7 15
24 21 23 25 24 31 20 11 4 7 22 12 6 6 7 5 5 3 6 4 5 4 3 4 7 5 5 16 13 8 8 6 14 13 14 7 7 9 15 12 6 7 21 35
30 26 21 27 34 32 42 14 11 12 7 11 13 12 9 8 5 8 13 3 12 12 7 5 10 9 4 11 13 7 8 10 7 13 19 12 29 31 19 23 30 13 39 15
32 31 29 20 38 36 51 12 9 12 13 10 18 16 12 17 9 16 11 11 13 16 13 16 14 11 10 11 8 11 8 7 3 11 15 18 17 34 31 37 31 31 43 49
35 36 34 26 36 38 30 46 27 13 14 10 9 13 14 16 17 25 12 22 10 20 35 35 18 15 9 9 15 16 11 6 5 11 7 13 16 18 13 11 10 14 13 30
44 41 38 38 35 52 41 18 30 19 16 15 12 12 26 23 35 7 9 23 14 7 11 9 7 5 4 4 9 19 10 9 5 8 10 4 13 8 13 19 15 31 15 18
53 53 48 43 40 49 54 47 25 17 11 23 17 18 14 26 25 19 16 18 14 13 9 2 8 8 10 6 5 1 8 8 4 2 5 17 19 5 12 13 15 24 28 31
58 62 62 62 54 50 58 56 52 28 13 23 40 24 31 11 8 4 10 15 23 21 7 4 9 8 7 7 11 7 3 5 6 5 4 11 10 2 3 5 11 13 28 18
67 66 59 56 63 58 62 68 59 46 28 42 25 14 17 24 19 5 11 14 17 26 6 6 7 9 5 5 13 11 5 4 22 16 9 19 28 17 5 10 12 14 21 17
70 72 68 64 65 64 66 70 67 60 18 44 44 68 47 24 26 11 23 13 7 8 10 7 8 7 10 3 7 13 17 15 9 6 6 19 29 13 17 12 8 11 15 21
75 74 71 67 64 71 70 78 63 62 56 26 35 61 58 58 49 44 41 8 17 28 5 4 4 3 3 7 7 1 5 15 13 23 19 12 44 24 42 31 18 16 13 20
75 73 72 75 69 68 80 88 69 57 53 52 62 50 57 76 73 56 29 23 19 17 16 12 5 9 8 8 13 10 10 21 8 4 24 44 61 70 69 55 54 48 42 33
60 70 74 70 76 71 81 73 74 74 25 15 38 41 66 71 63 69 66 55 34 31 33 11 6 6 21 7 7 10 15 23 12 16 42 49 75 73 79 76 71 68 65 64
70 67 73 81 65 72 72 80 77 74 67 11 10 29 53 55 68 80 64 58 49 27 16 7 8 10 3 2 3 15 27 19 13 20 65 34 43 61 53 52 47 38 50 46
69 76 81 83 74 68 61 43 77 76 76 17 6 10 20 52 47 53 60 54 52 32 15 11 13 13 16 6 10 42 44 62 81 67 92 71 70 71 70 61 60 57 49 49
62 64 74 86 65 59 69 22 28 51 74 17 7 6 14 25 31 30 33 42 27 25 15 14 10 14 19 5 17 70 37 49 64 80 88 67 82 69 65 48 41 41 45 43
59 58 61 69 59 59 72 82 59 59 80 27 7 3 11 35 15 12 22 18 21 14 10 8 10 12 10 13 22 36 63 71 76 88 83 97 91 85 79 66 55 58 55 43
54 55 54 53 60 36 49 76 62 58 34 17 12 16 9 33 13 14 15 15 4 11 5 8 17 6 14 19 38 62 85 53 71 63 57 62 69 69 68 64 54 60 59 53
46 54 34 22 41 47 31 41 22 43 34 19 6 22 9 28 12 10 13 11 6 6 10 15 9 10 43 61 88 103 117 99 78 62 67 60 64 62 63 65 58 56 57 55
37 20 17 26 30 39 27 14 20 13 9 23 17 18 14 26 7 7 14 6 4 5 8 8 6 8 15 61 79 79 80 69 62 62 63 60 60 56 43 37 35 43 51 55
19 9 13 36 22 14 12 9 8 8 10 12 11 19 24 20 14 8 10 8 4 11 5 3 7 11 51 52 58 49 42 44 46 44 46 50 49 40 40 43 29 24 38 43
44 14 6 14 13 14 14 18 6 7 7 18 27 10 17 15 11 10 5 8 12 8 4 9 10 32 50 57 50 43 37 30 26 29 35 37 34 35 42 49 48 33 24 30
18 20 10 9 9 8 7 15 10 16 40 57 60 19 7 11 5 6 10 2 5 4 1 13 8 59 57 44 37 31 22 18 20 23 26 32 35 35 40 49 55 60 53 35
16 14 12 11 8 5 3 8 27 30 58 66 27 16 12 4 7 4 8 6 10 12 11 10 45 51 41 32 24 22 14 23 30 29 26 27 33 36 27 36 49 56 55 49
6 3 5 3 3 5 7 4 15 55 57 49 16 9 8 8 9 9 17 14 13 9 9 30 26 30 31 28 27 21 24 37 41 39 39 37 33 33 27 31 42 52 57 51
3 3 9 5 2 8 14 27 17 60 49 7 7 11 12 7 6 4 10 11 9 22 33 25 34 34 33 30 26 30 34 43 47 47 43 39 34 34 28 29 33 51 56 45
Wind_Direction_500mb
268 252 243 233 237 237 245 195 148 231 181 137 217 199 225 205 209 206 189 226 188 182 174 228 243 234 204 151 150 177 199 154 259 229 266 157 165 190 161 132 270 228 199 268
295 249 233 223 226 233 207 223 190 205 184 187 216 226 242 246 200 217 173 232 231 123 187 236 217 225 165 167 170 176 181 276 350 339 351 359 203 222 173 134 112 220 154 266
302 293 240 224 209 222 216 198 143 188 195 217 185 171 224 255 225 231 203 216 138 124 247 240 289 261 198 196 198 174 161 216 188 209 213 146 264 226 204 152 152 222 227 273
293 290 286 223 207 215 225 226 228 190 180 221 186 176 173 177 252 219 204 301 212 173 220 197 225 226 199 202 201 189 143 223 243 253 253 220 255 254 206 204 218 196 268 222
270 276 281 243 207 219 218 219 186 193 189 168 175 193 206 218 183 163 227 206 198 189 197 194 203 183 197 206 170 172 184 258 98 284 255 246 256 253 226 224 241 252 257 276
267 263 262 273 215 217 222 225 240 198 197 182 163 187 203 214 173 224 206 202 161 200 231 227 231 246 235 205 168 189 170 151 64 265 348 313 289 238 173 186 210 160 172 232
256 260 257 256 231 228 227 219 220 203 236 200 196 199 202 213 206 210 201 191 175 222 203 185 237 202 327 264 235 189 145 123 134 267 358 294 248 190 178 196 215 211 267 265
261 257 250 246 246 240 240 229 230 219 240 200 196 213 212 238 216 216 200 198 200 173 138 49 5 333 6 331 9 142 159 129 304 233 220 299 288 178 159 175 279 206 220 251
266 261 256 243 243 238 250 245 228 240 276 233 218 197 202 194 179 171 177 178 168 172 157 151 198 227 208 294 339 348 154 91 148 83 179 243 254 234 147 123 291 202 189 231
263 261 260 253 239 237 237 246 245 234 243 242 215 204 198 190 183 129 143 170 170 185 168 188 187 241 178 214 176 176 149 205 218 215 247 279 253 236 152 87 245 173 196 211
264 258 254 253 245 237 235 240 237 233 250 251 228 228 221 199 190 166 158 125 196 162 197 187 217 174 219 120 185 179 171 162 194 139 206 274 189 113 176 224 230 222 212 220
257 260 256 249 244 240 234 243 241 230 240 255 236 229 233 227 221 210 182 213 169 175 153 223 120 236 97 177 249 292 263 196 182 187 215 242 196 218 225 214 231 253 256 262
263 251 257 252 240 241 236 233 235 236 225 250 255 242 234 231 240 237 209 212 206 210 199 158 184 230 128 182 236 187 254 186 227 85 250 243 251 248 252 252 253 259 267 267
264 268 253 255 256 231 239 240 232 226 213 208 242 237 234 235 232 232 227 234 217 215 204 182 161 203 197 226 237 204 196 149 192 261 275 275 264 256 268 273 268 264 265 260
264 265 267 254 246 237 234 239 242 231 208 213 200 227 217 218 227 233 234 229 225 196 160 193 211 209 177 220 27 246 182 203 205 248 261 248 263 278 278 277 282 273 261 258
265 259 260 254 244 232 227 238 237 232 221 231 219 217 215 218 218 219 220 219 220 212 187 186 224 200 180 229 245 261 239 240 236 247 262 268 272 276 280 274 275 273 264 270
263 263 254 256 243 226 219 202 205 225 208 204 175 211 177 192 185 187 197 209 211 214 202 219 196 189 185 223 253 260 268 264 263 262 261 268 266 266 278 273 277 267 260 252
268 266 258 252 232 229 231 229 219 197 186 200 201 114 139 171 161 144 179 178 197 218 230 202 176 160 206 250 252 272 268 270 265 262 260 263 270 272 273 269 265 260 252 239
264 263 266 246 230 205 241 226 235 226 195 179 146 147 193 165 144 143 152 163 161 206 216 223 164 202 222 234 245 255 269 258 274 281 275 271 265 270 271 267 254 248 246 241
264 274 231 225 219 228 226 183 195 201 199 207 156 138 152 157 140 157 129 169 208 199 231 168 218 251 253 256 261 267 275 275 281 275 277 271 266 270 271 265 263 250 242 239
258 214 190 192 167 167 184 219 187 202 179 159 140 148 129 173 141 146 195 173 187 205 248 176 254 271 239 255 256 265 272 280 278 276 277 276 280 279 270 266 267 242 229 231
245 250 145 156 174 194 197 187 188 195 185 133 125 132 124 148 153 119 174 170 149 240 143 94 271 249 254 266 268 278 286 278 278 275 270 285 281 269 250 245 253 243 230 226
221 190 257 177 223 204 191 174 188 149 143 145 142 119 124 134 158 100 127 147 210 116 89 230 232 258 274 275 287 300 297 294 289 284 281 284 282 266 246 234 229 230 229 228
216 162 216 220 203 225 215 165 167 161 151 146 147 119 126 138 94 135 149 184 92 80 277 237 245 257 269 279 301 303 310 312 316 315 310 304 283 284 249 239 231 231 234 235
225 160 180 222 160 55 270 149 134 138 150 141 122 87 115 128 109 98 106 56 248 206 224 225 245 278 296 296 286 288 289 320 320 317 319 319 306 302 258 236 231 223 222 224
181 146 152 206 74 187 154 80 136 146 152 146 109 121 149 175 143 146 211 139 216 233 221 247 294 311 322 304 303 290 293 305 312 312 314 312 310 300 268 230 226 213 211 218
65 199 133 209 140 230 140 149 169 158 145 134 122 133 189 111 84 236 178 196 225 244 261 293 315 324 339 328 313 306 304 304 307 307 304 304 307 308 276 246 230 215 209 216
Wind_Speed_850mb
22 20 18 14 13 16 19 13 4 7 12 5 3 4 5 3 5 4 5 2 6 10 9 5 7 9 9 12 15 9 8 7 7 19 7 9 10 14 10 8 11 8 5 19
24 22 21 16 13 23 18 7 8 15 24 5 5 2 4 6 8 6 6 5 7 2 9 3 11 7 5 15 14 12 9 2 6 15 10 9 5 9 8 6 3 13 7 15
24 21 23 25 24 31 20 11 4 7 22 12 6 6 7 5 5 3 6 4 5 4 3 4 7 5 5 16 13 8 8 6 14 13 14 7 7 9 15 12 6 7 21 35
30 26 21 27 34 32 42 14 11 12 7 11 13 12 9 8 5 8 13 3 12 12 7 5 10 9 4 11 13 7 8 10 7 13 19 12 29 31 19 23 30 13 39 15
32 31 29 20 38 36 51 12 9 12 13 10 18 16 12 17 9 16 11 11 13 16 13 16 14 11 10 11 8 11 8 7 3 11 15 18 17 34 31 37 31 31 43 49
35 36 34 26 36 38 30 46 27 13 14 10 9 13 14 16 17 25 12 22 10 20 35 35 18 15 9 9 15 16 11 6 5 11 7 13 16 18 13 11 10 14 13 30
44 41 38 38 35 52 41 18 30 19 16 15 12 12 26 23 35 7 9 23 14 7 11 9 7 5 4 4 9 19 10 9 5 8 10 4 13 8 13 19 15 31 15 18
53 53 48 43 40 49 54 47 25 17 11 23 17 18 14 26 25 19 16 18 14 13 9 2 8 8 10 6 5 1 8 8 4 2 5 17 19 5 12 13 15 24 28 31
58 62 62 62 54 50 58 56 52 28 13 23 40 24 31 11 8 4 10 15 23 21 7 4 9 8 7 7 11 7 3 5 6 5 4 11 10 2 3 5 11 13 28 18
67 66 59 56 63 58 62 68 59 46 28 42 25 14 17 24 19 5 11 14 17 26 6 6 7 9 5 5 13 11 5 4 22 16 9 19 28 17 5 10 12 14 21 17
70 72 68 64 65 64 66 70 67 60 18 44 44 68 47 24 26 11 23 13 7 8 10 7 8 7 10 3 7 13 17 15 9 6 6 19 29 13 17 12 8 11 15 21
75 74 71 67 64 71 70 78 63 62 56 26 35 61 58 58 49 44 41 8 17 28 5 4 4 3 3 7 7 1 5 15 13 23 19 12 44 24 42 31 18 16 13 20
75 73 72 75 69 68 80 88 69 57 53 52 62 50 57 76 73 56 29 23 19 17 16 12 5 9 8 8 13 10 10 21 8 4 24 44 61 70 69 55 54 48 42 33
60 70 74 70 76 71 81 73 74 74 25 15 38 41 66 71 63 69 66 55 34 31 33 11 6 6 21 7 7 10 15 23 12 16 42 49 75 73 79 76 71 68 65 64
70 67 73 81 65 72 72 80 77 74 67 11 10 29 53 55 68 80 64 58 49 27 16 7 8 10 3 2 3 15 27 19 13 20 65 34 43 61 53 52 47 38 50 46
69 76 81 83 74 68 61 43 77 76 76 17 6 10 20 52 47 53 60 54 52 32 15 11 13 13 16 6 10 42 44 62 81 67 92 71 70 71 70 61 60 57 49 49
62 64 74 86 65 59 69 22 28 51 74 17 7 6 14 25 31 30 33 42 27 25 15 14 10 14 19 5 17 70 37 49 64 80 88 67 82 69 65 48 41 41 45 43
59 58 61 69 59 59 72 82 59 59 80 27 7 3 11 35 15 12 22 18 21 14 10 8 10 12 10 13 22 36 63 71 76 88 83 97 91 85 79 66 55 58 55 43
54 55 54 53 60 36 49 76 62 58 34 17 12 16 9 33 13 14 15 15 4 11 5 8 17 6 14 19 38 62 85 53 71 63 57 62 69 69 68 64 54 60 59 53
46 54 34 22 41 47 31 41 22 43 34 19 6 22 9 28 12 10 13 11 6 6 10 15 9 10 43 61 88 103 117 99 78 62 67 60 64 62 63 65 58 56 57 55
37 20 17 26 30 39 27 14 20 13 9 23 17 18 14 26 7 7 14 6 4 5 8 8 6 8 15 61 79 79 80 69 62 62 63 60 60 56 43 37 35 43 51 55
19 9 13 36 22 14 12 9 8 8 10 12 11 19 24 20 14 8 10 8 4 11 5 3 7 11 51 52 58 49 42 44 46 44 46 50 49 40 40 43 29 24 38 43
44 14 6 14 13 14 14 18 6 7 7 18 27 10 17 15 11 10 5 8 12 8 4 9 10 32 50 57 50 43 37 30 26 29 35 37 34 35 42 49 48 33 24 30
18 20 10 9 9 8 7 15 10 16 40 57 60 19 7 11 5 6 10 2 5 4 1 13 8 59 57 44 37 31 22 18 20 23 26 32 35 35 40 49 55 60 53 35
16 14 12 11 8 5 3 8 27 30 58 66 27 16 12 4 7 4 8 6 10 12 11 10 45 51 41 32 24 22 14 23 30 29 26 27 33 36 27 36 49 56 55 49
6 3 5 3 3 5 7 4 15 55 57 49 16 9 8 8 9 9 17 14 13 9 9 30 26 30 31 28 27 21 24 37 41 39 39 37 33 33 27 31 42 52 57 51
3 3 9 5 2 8 14 27 17 60 49 7 7 11 12 7 6 4 10 11 9 22 33 25 34 34 33 30 26 30 34 43 47 47 43 39 34 34 28 29 33 51 56 45
Wind_Direction_850mb
268 252 243 233 237 237 245 195 148 231 181 137 217 199 225 205 209 206 189 226 188 182 174 228 243 234 204 151 150 177 199 154 259 229 266 157 165 190 161 132 270 228 199 268
295 249 233 223 226 233 207 223 190 205 184 187 216 226 242 246 200 217 173 232 231 123 187 236 217 225 165 167 170 176 181 276 350 339 351 359 203 222 173 134 112 220 154 266
302 293 240 224 209 222 216 198 143 188 195 217 185 171 224 255 225 231 203 216 138 124 247 240 289 261 198 196 198 174 161 216 188 209 213 146 264 226 204 152 152 222 227 273
293 290 286 223 207 215 225 226 228 190 180 221 186 176 173 177 252 219 204 301 212 173 220 197 225 226 199 202 201 189 143 223 243 253 253 220 255 254 206 204 218 196 268 222
270 276 281 243 207 219 218 219 186 193 189 168 175 193 206 218 183 163 227 206 198 189 197 194 203 183 197 206 170 172 184 258 98 284 255 246 256 253 226 224 241 252 257 276
267 263 262 273 215 217 222 225 240 198 197 182 163 187 203 214 173 224 206 202 161 200 231 227 231 246 235 205 168 189 170 151 64 265 348 313 289 238 173 186 210 160 172 232
256 260 257 256 231 228 227 219 220 203 236 200 196 199 202 213 206 210 201 191 175 222 203 185 237 202 327 264 235 189 145 123 134 267 358 294 248 190 178 196 215 211 267 265
261 257 250 246 246 240 240 229 230 219 240 200 196 213 212 238 216 216 200 198 200 173 138 49 5 333 6 331 9 142 159 129 304 233 220 299 288 178 159 175 279 206 220 251
266 261 256 243 243 238 250 245 228 240 276 233 218 197 202 194 179 171 177 178 168 172 157 151 198 227 208 294 339 348 154 91 148 83 179 243 254 234 147 123 291 202 189 231
263 261 260 253 239 237 237 246 245 234 243 242 215 204 198 190 183 129 143 170 170 185 168 188 187 241 178 214 176 176 149 205 218 215 247 279 253 236 152 87 245 173 196 211
264 258 254 253 245 237 235 240 237 233 250 251 228 228 221 199 190 166 158 125 196 162 197 187 217 174 219 120 185 179 171 162 194 139 206 274 189 113 176 224 230 222 212 220
257 260 256 249 244 240 234 243 241 230 240 255 236 229 233 227 221 210 182 213 169 175 153 223 120 236 97 177 249 292 263 196 182 187 215 242 196 218 225 214 231 253 256 262
263 251 257 252 240 241 236 233 235 236 225 250 255 242 234 231 240 237 209 212 206 210 199 158 184 230 128 182 236 187 254 186 227 85 250 243 251 248 252 252 253 259 267 267
264 268 253 255 256 231 239 240 232 226 213 208 242 237 234 235 232 232 227 234 217 215 204 182 161 203 197 226 237 204 196 149 192 261 275 275 264 256 268 273 268 264 265 260
264 265 267 254 246 237 234 239 242 231 208 213 200 227 217 218 227 233 234 229 225 196 160 193 211 209 177 220 27 246 182 203 205 248 261 248 263 278 278 277 282 273 261 258
265 259 260 254 244 232 227 238 237 232 221 231 219 217 215 218 218 219 220 219 220 212 187 186 224 200 180 229 245 261 239 240 236 247 262 268 272 276 280 274 275 273 264 270
263 263 254 256 243 226 219 202 205 225 208 204 175 211 177 192 185 187 197 209 211 214 202 219 196 189 185 223 253 260 268 264 263 262 261 268 266 266 278 273 277 267 260 252
268 266 258 252 232 229 231 229 219 197 186 200 201 114 139 171 161 144 179 178 197 218 230 202 176 160 206 250 252 272 268 270 265 262 260 263 270 272 273 269 265 260 252 239
264 263 266 246 230 205 241 226 235 226 195 179 146 147 193 165 144 143 152 163 161 206 216 223 164 202 222 234 245 255 269 258 274 281 275 271 265 270 271 267 254 248 246 241
264 274 231 225 219 228 226 183 195 201 199 207 156 138 152 157 140 157 129 169 208 199 231 168 218 251 253 256 261 267 275 275 281 275 277 271 266 270 271 265 263 250 242 239
258 214 190 192 167 167 184 219 187 202 179 159 140 148 129 173 141 146 195 173 187 205 248 176 254 271 239 255 256 265 272 280 278 276 277 276 280 279 270 266 267 242 229 231
245 250 145 156 174 194 197 187 188 195 185 133 125 132 124 148 153 119 174 170 149 240 143 94 271 249 254 266 268 278 286 278 278 275 270 285 281 269 250 245 253 243 230 226
221 190 257 177 223 204 191 174 188 149 143 145 142 119 124 134 158 100 127 147 210 116 89 230 232 258 274 275 287 300 297 294 289 284 281 284 282 266 246 234 229 230 229 228
216 162 216 220 203 225 215 165 167 161 151 146 147 119 126 138 94 135 149 184 92 80 277 237 245 257 269 279 301 303 310 312 316 315 310 304 283 284 249 239 231 231 234 235
225 160 180 222 160 55 270 149 134 138 150 141 122 87 115 128 109 98 106 56 248 206 224 225 245 278 296 296 286 288 289 320 320 317 319 319 306 302 258 236 231 223 222 224
181 146 152 206 74 187 154 80 136 146 152 146 109 121 149 175 143 146 211 139 216 233 221 247 294 311 322 304 303 290 293 305 312 312 314 312 310 300 268 230 226 213 211 218
65 199 133 209 140 230 140 149 169 158 145 134 122 133 189 111 84 236 178 196 225 244 261 293 315 324 339 328 313 306 304 304 307 307 304 304 307 308 276 246 230 215 209 216